Flag for Finland Weather past 2 weeks in Vaasa, Finland

Now
54 °F

Partly sunny.


Feels Like: 50 °F
Forecast: 45 / 53 °F
Wind: 10 mph from Southwest

Location: Vaasa Airport

Current Time: May 27, 2015 at 7:58:59 PM

Latest Report: May 27, 2015 at 7:20 PM


Visibility: N/A

Pressure: 29.68 "Hg

Humidity: 63%

Dew point: 41 °F

Location of VaasaLocation

Historic Weather in Vaasa — Graph

°F

Vaasa temperature yesterday

Maximum temperature yesterday: 57 °F (at 2:20 PM)
Minimum temperature yesterday: 45 °F (at 5:20 AM)
Average temperature yesterday: 51 °F

Past Weeks' High & Low Weather Summary

 TemperatureHumidityPressure
High59 °F (May 22, 12:50 PM)100% (May 13, 2:50 AM)29.98 "Hg (May 13, 2:50 AM)
Low30 °F (May 17, 1:50 AM)43% (May 18, 3:20 PM)29.12 "Hg (May 13, 1:20 PM)
Average46 °F77%29.70 "Hg
* Reported May 12 6:20 PM — May 27 6:20 PM, Vaasa, Weather by CustomWeather, © 2015

Note: Actual official high and low records may vary slightly from our data, if they occured in-between our weather recording intervals... More about our weather records

Advertising

Vaasa weather history for previous 24 hours

 ConditionsComfort  
Time TempWeatherWind HumidityBarometerVisibility
6:20 PM
Wed, May 27
54 °FMore clouds than sun.10 mph72%29.68 "HgN/A
5:50 PM52 °FPartly sunny.13 mph72%29.68 "HgN/A
5:20 PM52 °FPartly sunny.12 mph77%29.68 "HgN/A
4:50 PM52 °FPartly sunny.13 mph72%29.68 "HgN/A
4:20 PM52 °FPartly sunny.12 mph77%29.68 "HgN/A
3:50 PM50 °FPartly sunny.14 mph82%29.68 "HgN/A
3:20 PM50 °FPartly sunny.12 mph76%29.68 "HgN/A
2:50 PM50 °FPartly sunny.13 mph82%29.68 "HgN/A
2:20 PM50 °FPartly sunny.14 mph82%29.65 "HgN/A
1:50 PM50 °FPartly sunny.13 mph82%29.65 "HgN/A
1:20 PM50 °FPartly sunny.12 mph82%29.65 "HgN/A
12:50 PM50 °FMostly cloudy.9 mph82%29.65 "HgN/A
12:20 PM48 °FLow clouds.9 mph94%29.62 "HgN/A
11:50 AM46 °FLow clouds.10 mph93%29.62 "HgN/A
11:20 AM46 °FLow clouds.12 mph93%29.62 "HgN/A
10:50 AM46 °FLow clouds.10 mph93%29.62 "HgN/A
10:20 AM46 °FLow clouds.13 mph87%29.62 "HgN/A
9:50 AM46 °FLow clouds.13 mph93%29.62 "HgN/A
9:20 AM46 °FLow clouds.8 mph93%29.62 "HgN/A
8:50 AM48 °FPartly sunny.16 mph87%29.59 "HgN/A
8:20 AM48 °FCloudy.9 mph94%29.59 "HgN/A
7:50 AM48 °FLow clouds.10 mph94%29.59 "HgN/A
7:20 AM48 °FLow clouds.9 mph94%29.59 "HgN/A
6:50 AM50 °FLow clouds.10 mph94%29.59 "HgN/A
6:20 AM50 °FLight rain. Low clouds.6 mph94%29.59 "HgN/A
5:50 AM50 °FLight rain. Mostly cloudy.8 mph94%29.59 "HgN/A
5:20 AM50 °FLight rain. More clouds than sun.7 mph94%29.59 "Hg6 mi
4:50 AM50 °FLight rain. Low clouds.7 mph94%29.62 "HgN/A
4:20 AM50 °FRain. Mostly cloudy.6 mph94%29.62 "Hg4 mi
3:50 AM50 °FLight rain. Fog.6 mph94%29.62 "Hg3 mi
3:20 AM50 °FRain. Mostly cloudy.7 mph94%29.65 "Hg6 mi
2:50 AM50 °FHeavy rain. Mostly cloudy.9 mph94%29.65 "Hg5 mi
2:20 AM50 °FLight rain. Mostly cloudy.6 mph94%29.65 "HgN/A
1:50 AM50 °FLight rain. Mostly cloudy.7 mph94%29.68 "Hg4 mi
1:20 AM50 °FLight rain. Overcast.6 mph94%29.68 "HgN/A
12:20 AM50 °FHeavy rain. Overcast.5 mph94%29.71 "Hg6 mi
11:50 PM
Tue, May 26
50 °FLight rain. Mostly cloudy.3 mph94%29.74 "HgN/A
10:50 PM50 °FMostly cloudy.2 mph94%29.74 "HgN/A
10:20 PM50 °FOvercast.3 mph94%29.74 "HgN/A
9:50 PM50 °FLight rain. Mostly cloudy.5 mph94%29.77 "HgN/A
9:20 PM50 °FLight rain. Mostly cloudy.5 mph94%29.77 "HgN/A
8:50 PM50 °FLight rain. Low clouds.3 mph94%29.77 "HgN/A
8:20 PM50 °FLight rain. Low clouds.2 mph94%29.77 "HgN/A
7:50 PM50 °FHeavy rain. Mostly cloudy.6 mph94%29.80 "Hg3 mi
7:20 PM52 °FLight rain. Overcast.5 mph94%29.80 "HgN/A
Weather by CustomWeather, © 2015

See weather overviewHow to use our weather pages